{"data":{"norad_id":59696,"intl_designator":"2024-086Q","name":"STARLINK-32094","alt_names":[],"object_type":"PAYLOAD","status":"ACTIVE","operator":null,"country":"US","launch_date":"2024-05-08","launch_site_code":"AFETR","launch_vehicle":null,"mission":null,"orbit_class":"UNKNOWN","rcs_meters":null,"size_class":null,"mass_kg":null,"dimensions":null,"purposes":["comms"],"wikipedia_slug":null,"has_3d_model":false,"image_url":null,"decayed_at":null,"tle_current":{"epoch":"2026-05-24T23:07:09.584832Z","epoch_age_seconds":72087,"freshness":"FRESH","line1":"1 59696U 24086Q   26144.96330538  .00002593  00000+0  10370-3 0  9991","line2":"2 59696  43.0031 349.4494 0001828 276.4716  83.5928 15.27588306115778","mean_motion":15.27588306,"eccentricity":0.0001828,"inclination_deg":43.0031,"raan_deg":349.4494,"arg_perigee_deg":276.4716,"mean_anomaly_deg":83.5928,"bstar":0.0001037,"rev_number":11577,"period_min":94.266236154337,"perigee_km":481.77000472835,"apogee_km":484.27844527221,"semimajor_km":6861.1612250003,"source":"CELESTRAK","updated_at":"2026-05-25T13:38:19.042745Z"}}}